This is the latest recevied weather packets stored in our database for station/object DL9BGG-13. If no packets are shown the sender has not sent any weather packets the latest 1 day(s).
| Time | Temp. | Humidity | Pressure | Rain* | Wind** | Luminosity | Snow |
|---|---|---|---|---|---|---|---|
| 1777949202 | 8.89° C | 84% | 1058.1 hPa | 0 mm | 1.79 m/s, 0° | - | - |
| 1777949128 | 8.89° C | 84% | 1058.1 hPa | 0 mm | 1.79 m/s, 22° | - | - |
| 1777949054 | 8.89° C | 84% | 1058.2 hPa | 0 mm | 0.89 m/s, 22° | - | - |
| 1777948973 | 8.89° C | 84% | 1058.1 hPa | 0 mm | 3.58 m/s, 22° | - | - |
| 1777948901 | 8.89° C | 84% | 1058.1 hPa | 0 mm | 1.34 m/s, 0° | - | - |
| 1777948834 | 8.89° C | 84% | 1058.1 hPa | 0 mm | 2.68 m/s, 45° | - | - |
| 1777948760 | 8.89° C | 84% | 1058.2 hPa | 0 mm | 2.68 m/s, 22° | - | - |
| 1777948674 | 8.89° C | 84% | 1058.3 hPa | 0 mm | 0.89 m/s, 0° | - | - |
| 1777948599 | 8.89° C | 84% | 1058.2 hPa | 0 mm | 3.13 m/s, 45° | - | - |
| 1777948526 | 8.89° C | 84% | 1058.2 hPa | 0 mm | 2.68 m/s, 22° | - | - |
| 1777948454 | 8.89° C | 84% | 1058.2 hPa | 0 mm | 2.68 m/s, 45° | - | - |
| 1777948381 | 8.89° C | 84% | 1058.2 hPa | 0 mm | 0.89 m/s, 45° | - | - |
| 1777948314 | 8.89° C | 84% | 1058.2 hPa | 0 mm | 0 m/s | - | - |
| 1777948241 | 8.89° C | 84% | 1058.3 hPa | 0 mm | 1.79 m/s, 22° | - | - |
| 1777948161 | 8.89° C | 84% | 1058.3 hPa | 0 mm | 2.68 m/s, 22° | - | - |
| 1777948094 | 8.89° C | 84% | 1058.2 hPa | 0 mm | 2.68 m/s, 22° | - | - |
| 1777948013 | 8.89° C | 84% | 1058.3 hPa | 0 mm | 1.79 m/s, 22° | - | - |
| 1777947932 | 8.89° C | 84% | 1058.2 hPa | 0 mm | 2.68 m/s, 22° | - | - |
| 1777947852 | 8.89° C | 84% | 1058.2 hPa | 0 mm | 3.13 m/s, 45° | - | - |
| 1777947786 | 8.89° C | 84% | 1058.3 hPa | 0 mm | 4.02 m/s, 22° | - | - |
| 1777947714 | 8.89° C | 84% | 1058.3 hPa | 0 mm | 1.34 m/s, 45° | - | - |
| 1777947650 | 8.89° C | 84% | 1058.3 hPa | 0 mm | 1.79 m/s, 0° | - | - |
| 1777947581 | 8.89° C | 84% | 1058.2 hPa | 0 mm | 1.34 m/s, 0° | - | - |
| 1777947502 | 8.89° C | 84% | 1058.2 hPa | 0 mm | 0.89 m/s, 22° | - | - |
| 1777947428 | 8.89° C | 84% | 1058.3 hPa | 0 mm | 1.79 m/s, 22° | - | - |
* Rain latest hour (hover to see other rain measurements)
** Current wind speed in m/s (hover to see current wind gust speed)